Total_Precipitation_Accumulation
2.52 2.87 3.25 3.54 4.09 4.24 4.18 4.29 4.43 4.64 4.80 5.11 5.24 5.54 5.90 6.13 6.28 6.20 6.04 6.12 6.10 6.14 6.24 6.03 5.93 5.78 5.77 5.71 5.69 5.61 5.34 5.08 5.11 5.05 4.62 4.05 3.78 3.75 3.68 3.69 3.76 3.76 3.70
2.78 3.00 3.20 3.59 4.13 4.39 4.47 4.57 4.80 5.14 5.32 5.60 6.08 6.41 6.75 6.97 7.13 7.15 6.73 6.43 6.30 6.22 6.15 6.32 6.28 6.17 6.07 5.91 5.75 5.68 5.48 5.08 5.09 5.13 5.11 4.54 4.21 3.72 3.25 3.22 3.26 3.42 3.64
2.95 3.04 3.09 3.52 3.88 4.15 4.33 4.56 4.87 5.40 5.93 6.30 6.73 7.11 7.35 7.38 7.20 6.91 6.90 6.65 6.43 6.30 6.13 6.05 5.91 5.88 5.78 5.78 5.66 5.47 5.32 5.13 5.01 4.99 5.24 4.84 4.36 3.88 3.52 3.10 3.00 3.16 3.34
2.90 3.01 3.13 3.44 3.77 4.07 4.27 4.66 5.27 6.06 6.59 6.97 7.50 8.07 8.24 8.00 7.64 7.23 6.79 6.41 6.13 5.81 5.58 5.50 5.47 5.42 5.09 5.01 4.87 4.86 4.77 4.70 4.53 4.57 4.41 4.27 4.10 4.12 4.02 3.66 3.39 3.31 3.31
2.55 2.80 2.95 3.19 3.70 4.02 4.27 4.63 5.27 6.07 6.82 7.61 8.26 8.74 8.62 8.29 7.88 7.16 6.52 6.02 5.61 5.23 4.92 4.82 4.75 4.56 4.20 3.93 3.88 4.09 4.15 4.17 4.11 4.15 4.10 4.09 3.97 3.84 3.84 3.79 3.68 3.56 3.31
2.31 2.44 2.62 2.99 3.54 3.85 4.05 4.38 5.03 5.84 6.53 7.13 7.65 7.93 7.83 7.67 7.15 6.46 5.81 5.38 5.05 4.68 4.28 3.91 3.75 3.54 3.40 3.25 3.28 3.41 3.51 3.78 3.91 4.08 4.04 4.04 3.96 3.76 3.70 3.54 3.53 3.58 3.42
2.26 2.26 2.39 2.68 3.11 3.27 3.64 4.03 4.49 5.17 5.62 5.96 6.33 6.56 6.71 6.53 6.17 5.67 5.19 4.75 4.27 3.91 3.57 3.22 3.17 3.05 2.99 2.94 3.00 3.10 3.11 3.24 3.45 3.60 3.70 3.73 3.71 3.69 3.67 3.74 3.69 3.54 3.33
2.28 2.27 2.43 2.63 2.89 3.06 3.23 3.41 3.70 4.09 4.28 4.33 4.57 4.88 4.97 4.92 4.77 4.50 4.09 3.81 3.46 3.09 2.89 2.65 2.49 2.49 2.59 2.53 2.69 2.81 2.86 2.87 2.96 2.99 3.32 3.42 3.35 3.38 3.37 3.43 3.61 3.64 3.39
2.10 2.27 2.40 2.43 2.43 2.46 2.55 2.65 2.86 3.01 3.07 3.16 3.25 3.43 3.50 3.48 3.43 3.31 3.04 2.82 2.70 2.42 2.29 2.21 2.19 2.16 2.23 2.38 2.48 2.46 2.46 2.60 2.68 2.75 2.96 2.96 2.85 2.87 2.98 3.11 3.31 3.58 3.52
1.92 2.11 2.27 2.27 2.25 2.16 2.22 2.30 2.45 2.52 2.52 2.60 2.61 2.58 2.65 2.64 2.63 2.51 2.39 2.34 2.27 2.15 2.10 2.02 1.97 1.94 1.95 2.01 2.15 2.20 2.24 2.31 2.41 2.52 2.60 2.61 2.50 2.53 2.62 2.82 3.03 3.18 3.26
1.91 2.10 2.13 2.08 2.08 2.05 2.08 2.16 2.18 2.23 2.23 2.22 2.29 2.30 2.22 2.20 2.25 2.24 2.10 2.07 2.05 1.93 1.87 1.81 1.73 1.68 1.67 1.74 1.87 1.91 1.99 2.06 2.15 2.27 2.32 2.33 2.31 2.40 2.42 2.47 2.52 2.70 2.85
2.10 2.09 2.01 1.95 1.90 1.97 2.01 2.11 2.08 2.03 2.07 1.98 1.94 1.96 2.00 1.95 1.97 1.95 1.84 1.84 1.91 1.84 1.77 1.67 1.58 1.48 1.47 1.54 1.58 1.60 1.71 1.85 1.90 1.96 2.05 2.00 2.02 2.12 2.12 2.19 2.22 2.31 2.49
2.56 2.35 2.14 2.05 1.99 1.99 1.97 1.90 1.90 1.92 1.94 1.94 1.90 1.83 1.85 1.88 1.87 1.82 1.79 1.77 1.82 1.82 1.71 1.58 1.52 1.47 1.43 1.45 1.49 1.53 1.54 1.62 1.69 1.71 1.78 1.84 1.91 1.83 1.76 1.83 1.94 1.99 2.08
2.75 2.54 2.35 2.30 2.19 2.13 2.15 2.06 1.99 1.88 1.91 1.90 1.84 1.84 1.89 1.95 1.93 1.91 1.91 1.85 1.77 1.70 1.64 1.59 1.50 1.44 1.40 1.41 1.43 1.42 1.51 1.55 1.56 1.56 1.60 1.59 1.62 1.65 1.71 1.74 1.90 1.98 2.12
2.56 2.53 2.49 2.52 2.42 2.21 2.14 2.06 1.96 1.89 1.85 1.79 1.78 1.83 1.92 1.96 1.88 1.90 1.87 1.83 1.81 1.67 1.64 1.59 1.52 1.39 1.26 1.19 1.26 1.31 1.40 1.54 1.58 1.56 1.47 1.43 1.49 1.55 1.56 1.49 1.67 1.84 2.00
2.68 2.60 2.52 2.42 2.48 2.31 2.16 2.01 1.95 1.93 1.94 1.90 1.84 1.81 1.83 1.76 1.72 1.72 1.75 1.68 1.64 1.64 1.61 1.51 1.41 1.34 1.18 1.23 1.24 1.30 1.42 1.51 1.52 1.47 1.43 1.35 1.31 1.29 1.31 1.27 1.38 1.60 1.73
2.83 2.65 2.60 2.51 2.47 2.52 2.51 2.38 2.15 2.01 1.81 1.79 1.78 1.72 1.67 1.58 1.60 1.57 1.59 1.63 1.69 1.67 1.56 1.45 1.41 1.40 1.34 1.21 1.09 1.12 1.24 1.39 1.40 1.39 1.41 1.21 1.08 1.20 1.18 1.21 1.22 1.26 1.31
3.04 2.79 2.63 2.54 2.55 2.60 2.56 2.37 2.18 1.95 1.78 1.75 1.68 1.58 1.53 1.50 1.58 1.53 1.56 1.63 1.63 1.58 1.56 1.51 1.54 1.56 1.33 1.09 0.91 1.01 1.23 1.36 1.24 1.21 1.27 1.32 1.34 1.25 1.23 1.23 1.27 1.27 1.25
3.08 2.91 2.68 2.56 2.53 2.44 2.41 2.33 2.02 1.90 1.85 1.73 1.62 1.46 1.43 1.51 1.49 1.42 1.46 1.53 1.49 1.46 1.49 1.50 1.56 1.53 1.39 1.17 0.97 1.00 1.18 1.29 1.27 1.23 1.20 1.19 1.20 1.17 1.20 1.30 1.47 1.51 1.45
2.74 2.72 2.59 2.47 2.44 2.29 2.19 2.21 2.07 1.89 1.84 1.73 1.65 1.51 1.49 1.49 1.50 1.53 1.50 1.47 1.43 1.37 1.38 1.42 1.54 1.50 1.39 1.17 0.95 0.93 1.01 1.17 1.33 1.46 1.42 1.32 1.20 1.13 1.17 1.33 1.54 1.61 1.58
2.26 2.36 2.42 2.44 2.30 2.09 2.06 2.24 2.35 2.19 1.91 1.76 1.71 1.71 1.72 1.67 1.63 1.67 1.64 1.57 1.45 1.42 1.44 1.44 1.49 1.52 1.33 1.09 0.93 0.94 0.97 1.10 1.28 1.39 1.45 1.36 1.24 1.17 1.20 1.30 1.48 1.57 1.59
1.94 2.11 2.33 2.33 2.25 2.11 2.04 2.03 2.11 2.10 1.97 1.91 1.88 1.82 1.75 1.68 1.66 1.75 1.66 1.63 1.66 1.60 1.58 1.52 1.51 1.44 1.24 1.00 0.90 0.91 0.91 0.97 1.12 1.29 1.28 1.29 1.25 1.19 1.21 1.22 1.35 1.51 1.69
1.87 1.95 2.07 2.18 2.18 2.03 2.04 2.04 1.97 1.82 1.79 1.95 1.94 1.89 1.79 1.75 1.76 1.78 1.67 1.56 1.66 1.61 1.49 1.41 1.40 1.32 1.17 1.03 0.90 0.88 0.88 0.88 0.92 1.02 1.07 1.09 1.08 1.13 1.24 1.30 1.37 1.50 1.77
1.79 1.86 1.96 2.07 2.10 1.92 1.88 1.90 1.82 1.78 1.83 1.85 1.85 1.88 1.87 1.77 1.66 1.61 1.55 1.51 1.51 1.55 1.52 1.43 1.36 1.24 1.13 0.99 0.85 0.81 0.81 0.80 0.79 0.84 0.95 1.07 1.15 1.22 1.35 1.54 1.63 1.65 1.76
1.63 1.74 1.93 2.03 1.94 1.80 1.69 1.65 1.78 1.85 1.94 1.84 1.71 1.71 1.71 1.65 1.61 1.52 1.40 1.36 1.27 1.27 1.35 1.29 1.17 1.07 1.00 0.91 0.92 0.89 0.84 0.83 0.84 0.87 0.96 1.16 1.31 1.41 1.45 1.52 1.63 1.68 1.65
1.46 1.60 1.74 1.84 1.78 1.70 1.67 1.59 1.68 1.79 1.86 1.76 1.67 1.66 1.59 1.55 1.43 1.36 1.32 1.32 1.21 1.13 1.10 1.13 1.05 0.92 0.89 0.89 0.87 0.83 0.82 0.89 0.94 0.96 1.08 1.22 1.30 1.38 1.45 1.50 1.50 1.50 1.48